Regional Weather Roundup
Issued by NWS State College, PA

Home | Current Version | Previous Version | Text Only | Print | Product List | Glossary Off
Versions: 1 2 3 4 5 6 7 8 9 10 11 12 13 14 15 16 17 18 19 20 21 22 23 24 25 26 27 28 29 30 31 32 33 34 35 36 37 38 39 40 41 42 43 44 45 46 47 48 49 50

000
ASUS41 KCTP 261503
RWRCTP

REGIONAL WEATHER ROUNDUP
NATIONAL WEATHER SERVICE STATE COLLEGE PA
1100 AM EDT WED APR 26 2017

Note: "fair" indicates few or no clouds below 12,000 feet with no
significant weather and/or obstructions to visibility.

* = STATION THAT DOES NOT REPORT PRECIPITATION /E.G. RAIN...SNOW...ETC/
    THUNDER OR FOG.

PAZ002>004-007>009-013>016-020>023-029>032-261600-
WESTERN PENNSYLVANIA

CITY           SKY/WX    TMP DP  RH WIND       PRES   REMARKS
ERIE           CLOUDY    62  53  72 N7        29.79R
MEADVILLE      CLOUDY    59  53  80 VRB3      29.80S
FRANKLIN*      CLOUDY    55  48  76 S5        29.82F
NEW CASTLE     FAIR      66  55  67 SE7       29.80F
BEAVER COUNTY  MOSUNNY   64  54  68 S7        29.80S
BUTLER*        CLOUDY    61  52  72 CALM      29.83S
PITTSBURGH INT MOSUNNY   64  53  67 CALM      29.80F
PITTSBURGH     MOSUNNY   62  52  69 S3        29.80S
INDIANA*       CLOUDY    61  54  77 W7        29.84S
LATROBE        PTSUNNY   59  54  82 CALM      29.82F
WASHINGTON CO* SUNNY     61  54  77 CALM      29.82F
$$

PAZ004>006-010>012-017>019-024>028-033>037-041-042-045-046-049>053-261600-
CENTRAL PENNSYLVANIA

CITY           SKY/WX    TMP DP  RH WIND       PRES   REMARKS
BRADFORD       MOSUNNY   61  55  81 VRB5      29.81S
DUBOIS         CLOUDY    58  53  84 CALM      29.80F
CLEARFIELD     CLOUDY    57  55  93 CALM      29.82R
JOHNSTOWN      PTSUNNY   58  53  84 SW5       29.81F
ALTOONA          N/A    N/A N/A N/A CALM      29.82S
STATE COLLEGE  CLOUDY    55  54  94 E5        29.82S
WILLIAMSPORT   CLOUDY    61  54  77 CALM      29.80R
SELINSGROVE    CLOUDY    59  55  87 N6        29.81R
FT INDIANTOWN  CLOUDY    59  59 100 E3        29.79R
CAPITAL CITY   CLOUDY    59  56  89 NW3       29.81R FOG
HARRISBURG     CLOUDY    59  57  93 CALM      29.80R
YORK           CLOUDY    57  57 100 N5        29.80R FOG
$$

PAZ038>040-043-044-047-048-054-055-060>062-067>071-261600-
EASTERN PENNSYLVANIA

CITY           SKY/WX    TMP DP  RH WIND       PRES   REMARKS
SCRANTON       MOSUNNY   62  53  72 NE10      29.78S
MOUNT POCONO   CLOUDY    53  53 100 NE6       29.80R
ALLENTOWN      CLOUDY    62  54  74 E12       29.79R
QUAKERTOWN*    CLOUDY    57  54  88 NE8       29.79R
READING        CLOUDY    58  56  93 CALM      29.79R
LANCASTER      CLOUDY    59  57  93 NE6       29.79R
COATESVILLE      N/A     57  57 100 N5        29.80R
POTTSTOWN      CLOUDY    57  53  86 NW5       29.79R
BLUE BELL      CLOUDY    57  55  94 N5        29.79R
DOYLESTOWN     CLOUDY    57  55  93 N6        29.77R
WILLOW GROVE   NOT AVBL
NORTH PHILA    CLOUDY    60  57  89 N10       29.78R
PHILADELPHIA   CLOUDY    60  56  86 NE10G22   29.76R
$$



USA.gov is the U.S. government's official web portal to all federal, state and local government web resources and services.